When you browse on this site, cookies collect data to enhance your experience and personalize the content and advertising you see.
Visit our Privacy Policy to learn more. By continuing to use the site, you agree to this use of cookies and data.
  • In United Kingdom
  • List of Countries
  • For 7 days
  • Water Temperature
  • Weather Map
  • Weather Widgets
  • user-avatar
    Login

    Hourly Weather Ischgl

    Today, 23 January, Thursday

    Time Temperature Precipitation Wind Pressure Humidity
    00:00 -6°C° 0 mm 1 mps 577 mmHg 35%
    01:00 -6°C° 0 mm 1 mps 577 mmHg 35%
    02:00 -6°C° 0 mm 1 mps 577 mmHg 34%
    03:00 -6°C° 0 mm 1 mps 576 mmHg 34%
    04:00 -6°C° 0 mm 1 mps 576 mmHg 33%
    05:00 -6°C° 0 mm 1 mps 576 mmHg 32%
    06:00 -7°C° 0 mm 2 mps 576 mmHg 30%
    07:00 -7°C° 0 mm 2 mps 576 mmHg 29%
    08:00 -6°C° 0 mm 2 mps 577 mmHg 33%
    09:00 -5°C° 0 mm 2 mps 577 mmHg 38%
    10:00 -3°C° 0 mm 2 mps 578 mmHg 43%
    11:00 -2°C° 0 mm 2 mps 578 mmHg 51%
    12:00 -2°C° 0 mm 2 mps 578 mmHg 59%
    13:00 -1°C° 0 mm 2 mps 579 mmHg 67%
    14:00 -1°C° 0 mm 2 mps 578 mmHg 63%
    15:00 -2°C° 0 mm 2 mps 577 mmHg 59%
    16:00 -4°C° 0 mm 3 mps 577 mmHg 55%
    17:00 -5°C° 0 mm 3 mps 576 mmHg 52%
    18:00 -6°C° 0 mm 3 mps 575 mmHg 49%
    19:00 -8°C° 0 mm 3 mps 575 mmHg 46%
    20:00 -8°C° 0 mm 3 mps 575 mmHg 45%
    21:00 -8°C° 0 mm 3 mps 575 mmHg 44%
    22:00 -7°C° 0 mm 2 mps 575 mmHg 43%
    23:00 -7°C° 0 mm 2 mps 575 mmHg 43%

    Tomorrow, 24 January, Friday

    Time Temperature Precipitation Wind Pressure Humidity
    00:00 -7°C° 0 mm 2 mps 575 mmHg 43%
    01:00 -7°C° 0 mm 2 mps 575 mmHg 43%
    02:00 -7°C° 0 mm 2 mps 574 mmHg 43%
    03:00 -7°C° 0 mm 2 mps 574 mmHg 43%
    04:00 -6°C° 0 mm 1 mps 574 mmHg 43%
    05:00 -6°C° 0 mm 1 mps 574 mmHg 44%
    06:00 -7°C° 0 mm 2 mps 574 mmHg 44%
    07:00 -7°C° 0 mm 2 mps 574 mmHg 45%
    08:00 -6°C° 0 mm 2 mps 574 mmHg 48%
    09:00 -5°C° 0 mm 2 mps 575 mmHg 52%
    10:00 -4°C° 0 mm 2 mps 576 mmHg 56%
    11:00 -3°C° 0 mm 2 mps 576 mmHg 64%
    12:00 0°C° 0 mm 1 mps 576 mmHg 73%
    13:00 +1°C° 0 mm 1 mps 576 mmHg 81%
    14:00 0°C° 0 mm 1 mps 575 mmHg 77%
    15:00 0°C° 0 mm 1 mps 575 mmHg 74%
    16:00 -1°C° 0 mm 1 mps 574 mmHg 70%
    17:00 -4°C° 0 mm 2 mps 574 mmHg 69%
    18:00 -5°C° 0 mm 2 mps 573 mmHg 68%
    19:00 -7°C° 0 mm 2 mps 573 mmHg 67%
    20:00 -7°C° 0 mm 2 mps 573 mmHg 67%
    21:00 -7°C° 0 mm 2 mps 573 mmHg 67%
    22:00 -7°C° 0 mm 2 mps 573 mmHg 67%
    23:00 -7°C° 0 mm 2 mps 573 mmHg 68%

    Day after tomorrow, 25 January, Saturday

    Time Temperature Precipitation Wind Pressure Humidity
    00:00 -7°C° 0 mm 2 mps 573 mmHg 69%
    01:00 -7°C° 0 mm 2 mps 573 mmHg 70%
    02:00 -7°C° 0 mm 1 mps 572 mmHg 70%
    03:00 -7°C° 0 mm 1 mps 572 mmHg 71%
    04:00 -7°C° 0 mm 1 mps 571 mmHg 72%
    05:00 -7°C° 0 mm 1 mps 571 mmHg 72%
    06:00 -7°C° 0 mm 1 mps 571 mmHg 72%
    07:00 -7°C° 0 mm 1 mps 571 mmHg 72%
    08:00 -6°C° 0 mm 1 mps 571 mmHg 73%
    09:00 -4°C° 0 mm 1 mps 572 mmHg 74%
    10:00 -4°C° 0 mm 0 mps 573 mmHg 75%
    11:00 -4°C° 0 mm 0 mps 573 mmHg 75%
    12:00 -3°C° 0 mm 0 mps 573 mmHg 76%
    13:00 -2°C° 0 mm 1 mps 573 mmHg 76%
    14:00 -3°C° 0.1 mm 0 mps 572 mmHg 81%
    15:00 -4°C° 0.1 mm 0 mps 572 mmHg 85%
    16:00 -4°C° 0.1 mm 0 mps 572 mmHg 90%
    17:00 -5°C° 0.1 mm 0 mps 571 mmHg 91%
    18:00 -5°C° 0.1 mm 0 mps 571 mmHg 92%
    19:00 -6°C° 0.1 mm 0 mps 571 mmHg 93%
    20:00 -7°C° 0 mm 1 mps 570 mmHg 91%
    21:00 -8°C° 0 mm 1 mps 570 mmHg 89%
    22:00 -8°C° 0 mm 1 mps 570 mmHg 88%
    23:00 -8°C° 0 mm 1 mps 570 mmHg 86%

    26 January, Sunday

    Time Temperature Precipitation Wind Pressure Humidity
    00:00 -9°C° 0 mm 1 mps 570 mmHg 85%
    01:00 -9°C° 0 mm 1 mps 569 mmHg 84%
    02:00 -9°C° 0 mm 1 mps 569 mmHg 83%
    03:00 -9°C° 0 mm 1 mps 569 mmHg 83%
    04:00 -9°C° 0 mm 1 mps 569 mmHg 82%
    05:00 -9°C° 0 mm 1 mps 569 mmHg 82%
    06:00 -10°C° 0 mm 1 mps 569 mmHg 83%
    07:00 -10°C° 0 mm 1 mps 569 mmHg 83%
    08:00 -8°C° 0 mm 1 mps 570 mmHg 82%
    09:00 -7°C° 0 mm 1 mps 571 mmHg 82%
    10:00 -6°C° 0 mm 1 mps 571 mmHg 81%
    11:00 -4°C° 0 mm 1 mps 572 mmHg 80%
    12:00 -3°C° 0 mm 1 mps 572 mmHg 79%
    13:00 -2°C° 0 mm 1 mps 572 mmHg 77%
    14:00 -4°C° 0 mm 0 mps 572 mmHg 80%
    15:00 -4°C° 0 mm 0 mps 571 mmHg 82%
    16:00 -5°C° 0 mm 0 mps 571 mmHg 84%
    17:00 -6°C° 0 mm 0 mps 571 mmHg 86%
    18:00 -7°C° 0 mm 0 mps 570 mmHg 87%
    19:00 -8°C° 0 mm 1 mps 570 mmHg 89%
    20:00 -9°C° 0 mm 1 mps 570 mmHg 88%
    21:00 -9°C° 0 mm 1 mps 570 mmHg 87%
    22:00 -9°C° 0 mm 1 mps 570 mmHg 87%
    23:00 -9°C° 0 mm 1 mps 570 mmHg 86%

    27 January, Monday

    Time Temperature Precipitation Wind Pressure Humidity
    00:00 -9°C° 0 mm 1 mps 570 mmHg 85%
    01:00 -9°C° 0 mm 1 mps 570 mmHg 85%
    02:00 -9°C° 0 mm 1 mps 570 mmHg 86%
    03:00 -9°C° 0 mm 1 mps 570 mmHg 87%
    04:00 -9°C° 0 mm 1 mps 570 mmHg 88%
    05:00 -9°C° 0 mm 1 mps 570 mmHg 87%
    06:00 -9°C° 0 mm 1 mps 570 mmHg 86%
    07:00 -9°C° 0 mm 1 mps 571 mmHg 85%
    08:00 -8°C° 0 mm 1 mps 571 mmHg 83%
    09:00 -7°C° 0 mm 1 mps 572 mmHg 81%
    10:00 -4°C° 0 mm 1 mps 573 mmHg 78%
    11:00 -3°C° 0 mm 1 mps 573 mmHg 77%
    12:00 -2°C° 0 mm 1 mps 573 mmHg 75%
    13:00 -1°C° 0 mm 1 mps 573 mmHg 73%
    14:00 -2°C° 0 mm 1 mps 573 mmHg 74%
    15:00 -2°C° 0 mm 1 mps 573 mmHg 74%
    16:00 -2°C° 0 mm 1 mps 572 mmHg 74%
    17:00 -5°C° 0 mm 2 mps 572 mmHg 72%
    18:00 -6°C° 0 mm 2 mps 571 mmHg 69%
    19:00 -8°C° 0 mm 3 mps 571 mmHg 67%
    20:00 -9°C° 0 mm 3 mps 571 mmHg 65%
    21:00 -9°C° 0 mm 3 mps 571 mmHg 63%
    22:00 -9°C° 0 mm 3 mps 571 mmHg 61%
    23:00 -9°C° 0 mm 3 mps 571 mmHg 61%

    28 January, Tuesday

    Time Temperature Precipitation Wind Pressure Humidity
    00:00 -9°C° 0 mm 3 mps 570 mmHg 61%
    01:00 -9°C° 0 mm 3 mps 570 mmHg 61%
    02:00 -9°C° 0 mm 3 mps 570 mmHg 61%
    03:00 -10°C° 0 mm 3 mps 569 mmHg 61%
    04:00 -10°C° 0 mm 3 mps 569 mmHg 61%
    05:00 -10°C° 0 mm 3 mps 569 mmHg 60%
    06:00 -10°C° 0 mm 3 mps 569 mmHg 60%
    07:00 -10°C° 0 mm 3 mps 568 mmHg 59%
    08:00 -9°C° 0 mm 3 mps 569 mmHg 61%
    09:00 -8°C° 0 mm 3 mps 569 mmHg 63%
    10:00 -7°C° 0 mm 3 mps 570 mmHg 65%
    11:00 -5°C° 0 mm 2 mps 570 mmHg 67%
    12:00 -4°C° 0 mm 2 mps 571 mmHg 69%
    13:00 -3°C° 0 mm 2 mps 571 mmHg 71%
    14:00 -4°C° 0 mm 2 mps 571 mmHg 73%
    15:00 -2°C° 0 mm 1 mps 570 mmHg 74%
    16:00 -3°C° 0 mm 1 mps 570 mmHg 76%
    17:00 -4°C° 0 mm 1 mps 570 mmHg 76%
    18:00 -6°C° 0 mm 1 mps 570 mmHg 76%
    19:00 -7°C° 0 mm 1 mps 569 mmHg 75%
    20:00 -8°C° 0 mm 1 mps 570 mmHg 77%
    21:00 -8°C° 0 mm 1 mps 570 mmHg 78%
    22:00 -8°C° 0 mm 1 mps 570 mmHg 80%
    23:00 -8°C° 0 mm 1 mps 570 mmHg 83%
    Show more